SHINAWY
ratinglanguagereleaseotheruploaded
0Arabicsubtitle Detroit.2017.720p.BluRay.x264-[YTS.AG]2017-12-06
1Englishsubtitle Dunkirk.2017.720p.BluRay.x264-[YTS.AG]2017-12-06
2Arabicsubtitle Dunkirk.2017.720p.BluRay.x264-[YTS.AG]2017-12-06
1Arabicsubtitle Escape.Room.2017.720p.BluRay.x264-[YTS.AG]2017-11-30
6Arabicsubtitle Kingsman.The.Golden.Circle.2017.720p.BluRay.x264-[YTS.AG]2017-11-30
10Arabicsubtitle The.Hitman's.Bodyguard.2017.720p.BluRay.x264-[YTS.AG]2017-11-11
8Arabicsubtitle Valerian.And.The.City.Of.A.Thousand.Planets.2017.720p.BluRay.x264-[YTS.AG]2017-11-11
4Arabicsubtitle Wind.River.2017.720p.BluRay.x264-[YTS.AG]2017-11-05
5Arabicsubtitle Atomic.Blonde.2017.720p.BluRay.x264-[YTS.AG]2017-11-05
5Arabicsubtitle Gun.Shy.2017.720p.BluRay.x264-[YTS.AG]2017-11-05
3Arabicsubtitle The.Glass.Castle.2017.720p.BluRay.x264-[YTS.AG]2017-10-28
15Englishsubtitle The.Glass.Castle.2017.720p.BluRay.x264-[YTS.AG]2017-10-28
2Arabicsubtitle Star.Wars.Episode.II.-.Attack.Of.The.Clones.2002.720p.BluRay.x264-[YTS.AG]2017-10-27
3Arabicsubtitle Viceroy's.House.2017.720p.BluRay.x264-[YTS.AG]2017-10-24
3Arabicsubtitle Bushwick.2017.720p.BluRay.x264-[YTS.AG]2017-10-23
7Englishsubtitle Bushwick.2017.720p.BluRay.x264-[YTS.AG]2017-10-23
3Arabicsubtitle Armed.Response.2017.720p.BluRay.x264-[YTS.AG]2017-10-21
2Arabicsubtitle Spartacus.1960.720p.BluRay.x264-[YTS.AG]2017-10-15
5Arabicsubtitle Girls.Trip.2017.720p.BluRay.x264-[YTS.AG]2017-10-07
8Arabicsubtitle 6.Days.2017.720p.BluRay.x264-[YTS.AG]2017-10-04
2Arabicsubtitle Berlin.Syndrome.2017.720p.BluRay.x264-[YTS.AG]2017-10-03
2Arabicsubtitle Shock.Wave.2017.720p.BluRay.x264-[YTS.AG]2017-10-03
2Arabicsubtitle Pressed.2011.720p.BRrip.x264.GAZ.YIFY2017-10-02
2Arabicsubtitle The.Ledge.2011.720p.BrRip.x264.YIFY2017-10-02
2Arabicsubtitle The Devils Double 2011.720p.BrRip.x264.YIFY2017-10-02
2Arabicsubtitle Retreat.2011.720p.BrRip.x264.YIFY2017-09-30
2Arabicsubtitle Freelancers.2012.720p.BluRay.x264.[YTS.AG]2017-09-27
4Arabicsubtitle Baby.Driver.2017.720p.BluRay.x264.[YTS.AG]2017-09-27
2Arabicsubtitle Hijacked.2012.BluRay.720p.x264.YIFY2017-09-27
2Arabicsubtitle Fright.Night.2011.720p.BrRip.x264.YIFY2017-09-27
2Arabicsubtitle Born.to.Race.2011.720p.BluRay.x264.[YTS.AG]2017-09-27
2Arabicsubtitle Hostel.2005.720p.BluRay.x264.[YTS.AG]2017-09-24
2Arabicsubtitle The.Hit.List.2011.720p.x264.YIFY2017-09-21
3Arabicsubtitle A.Ghost.Story.2017.720p.BluRay.x264-[YTS.AG]2017-09-21
3Arabicsubtitle 222.2017.720p.BluRay.x264-[YTS.AG]2017-09-17
-2Arabicsubtitle Transformers.The.Last.Knight.2017.720p.BluRay.x264-[YTS.AG]2017-09-17
9Arabicsubtitle Pirates.of.the.Caribbean:.Dead.Men.Tell.No.Tales.2017.720p.BluRay.x264.[YTS.AG]2017-09-11
2Arabicsubtitle The.Love.Witch.2016.720p.BluRay.x264.[YTS.AG]2017-09-09
3Arabicsubtitle Kidnap.2017.720p.BluRay.x264.[YTS.AG]2017-09-08
6Arabicsubtitle Wonder.Woman.2017.720p.BluRay.x264-[YTS.AG]2017-09-06
3Arabicsubtitle Fifty.Shades.of.Grey.2015.720p.BluRay.x264.YIFY2017-09-04
2Arabicsubtitle A.Nightmare.on.Elm.Street.2010.1080p.720p.BluRay.x264.[YTS.AG]2017-09-03
3Arabicsubtitle The.Mummy.2017.720p.BluRay.x264-[YTS.AG]2017-08-31
2Arabicsubtitle The.Wall.2017.720p.BluRay.x264-[YTS.AG]2017-08-11
5Arabicsubtitle Guardians.Of.The.Galaxy.Vol..2.2017.720p.BluRay.x264-[YTS.AG]2017-08-11
3Arabicsubtitle Alien.Covenant.2017.720p.BluRay.x264-[YTS.AG]2017-08-04
2Arabicsubtitle Phoenix.Forgotten.2017.720p.BluRay.x264-[YTS.AG]2017-08-01
6Arabicsubtitle King.Arthur.Legend.Of.The.Sword.2017.720p.BluRay.x264-[YTS.AG]2017-07-31
5Arabicsubtitle Ghost.in.the.Shell.2017.720p.BluRay.x264.[YTS.AG]2017-07-14
2Arabicsubtitle Unforgettable.2017.720p.BluRay.x264.[YTS.AG]2017-07-14
4Arabicsubtitle The.Fate.Of.The.Furious.2017.720p.BluRay.x264-[YTS.AG]2017-07-14
0Arabicsubtitle The.Fate.Of.The.Furious.2017.720p.BluRay.x264-[YTS.AG]2017-06-29
2Arabicsubtitle Extortion.2017.720p.BluRay.x264-[YTS.AG]2017-06-26
8Arabicsubtitle Kong.Skull.Island.2017.720p.BluRay.x264-[YTS.AG]2017-06-23
2Arabicsubtitle Altitude.2017.720p.BluRay.x264-[YTS.AG]2017-06-10
3Arabicsubtitle T2.Trainspotting.2017.720p.BluRay.x264-[YTS.AG]2017-05-28
2Arabicsubtitle Aftermath.2017.720p.BluRay.x264-[YTS.AG]2017-05-28
2Arabicsubtitle Logan.2017.720p.BluRay.x264-[YTS.AG]2017-05-28
4Arabicsubtitle The.Assignment.2016.720p.BluRay.x264-[YTS.AG]2017-05-27
6Arabicsubtitle Beauty.And.The.Beast.2017.720p.BluRay.x264-[YTS.AG]2017-05-20
5Arabicsubtitle Before.I.Fall.2017.720p.BluRay.x264-[YTS.AG]2017-05-19
3Arabicsubtitle My.Cousin.Vinny.1992.720p.BluRay.x264-[YTS.AG]2017-05-19
4Arabicsubtitle Mean.Dreams.2016.720p.BluRay.x264-[YTS.AG]2017-05-19
6Arabicsubtitle Fist.Fight.2017.720p.BluRay.x264-[YTS.AG]2017-05-16
6Arabicsubtitle Get.Out.2017.720p.BluRay.x264-[YTS.AG]2017-05-13
2Englishsubtitle Star.Trek.IV.The.Voyage.Home.1986.720p.BRrip.x264.YIFY2017-04-19
2Arabicsubtitle Star.Trek.IV.The.Voyage.Home.1986.720p.BRrip.x264.YIFY2017-04-19
3Englishsubtitle Star.Trek.III.The.Search.For.Spock.1984.720p.BRrip.x264.YIFY2017-04-19
2Arabicsubtitle Star.Trek.III.The.Search.For.Spock.1984.720p.BRrip.x264.YIFY2017-04-19
2Arabicsubtitle Star.Trek.II.The.Wrath.of.Khan.1982.720p.BRrip.x264.YIFY2017-04-19
2Arabicsubtitle Star.Trek.The.Motion.Picture.1979.720p.BRrip.x264.YIFY2017-04-19
2Arabicsubtitle Star.Trek.V.The.Final.Frontier.1989.720p.BRrip.x264.YIFY2017-04-19
2Arabicsubtitle Star.Trek.VI.The.Undiscovered.Country.1991.720p.BRrip.x264.YIFY2017-04-18
2Arabicsubtitle Star.Trek.Generations.1994.720p.BRrip.x264.YIFY2017-04-18
2Arabicsubtitle Star.Trek.Insurrection.1998.720p.BRrip.x264.YIFY2017-04-17
2Arabicsubtitle Star.Trek.Nemesis.2002.720p.BRrip.x264.YIFY2017-04-17
8Arabicsubtitle Snowden.2016.720p.BluRay.x264.[YTS.AG]2016-12-10
3Arabicsubtitle Sully.2016.720p.BluRay.x264.[YTS.AG]2016-12-10
3Arabicsubtitle Morgan.2016.720p.BluRay.x264.[YTS.AG]2016-12-10
8Arabicsubtitle The.Magnificent.Seven.2016.720p.BluRay.x264.[YTS.AG]2016-12-08
6Arabicsubtitle Suicide.Squad.2016.720p.BluRay.x264.[YTS.AG]2016-12-04
2Arabicsubtitle The.Game.1997.720p.BluRay.x264.[YTS.AG]2016-11-29
2Arabicsubtitle King Arthur.20042016-11-26
2Arabicsubtitle Lethal.Weapon.4.1998.1080p.720p.BluRay.x264.[YTS.AG]2016-11-26
2Arabicsubtitle King.Arthur.EXTENDED.2004.1080p.720p.BluRay.x264.[YTS.AG]2016-11-26
1Arabicsubtitle Independence.Day.1996.720p.BluRay.x264.[YTS.AG]2016-11-20
2Arabicsubtitle In.the.Line.of.Fire.1993.720p.BluRay.x264.[YTS.AG]2016-11-20
2Arabicsubtitle Hidalgo.2004.1080p.720p.BluRay.x264.[YTS.AG]2016-11-19
2Arabicsubtitle Hollow Man 20002016-11-19
2Arabicsubtitle Nerve.2016.720p.BluRay.x264.[YTS.AG]2016-11-04
2Arabicsubtitle Deadpool.2016.720p.BluRay.x264.[YTS.AG]2016-10-23
2Arabicsubtitle Ironclad.2011.720p&1080p.BRrip.x264.YIFY2016-10-23
2Arabicsubtitle Wall.Street.Money.Never.Sleeps.2010.720p.BrRip.x264.BOKUTOX.YIFY2016-10-18
2Arabicsubtitle Valentine's.Day.2010.720p.BrRip.264.YIFY2016-10-17
2Arabicsubtitle The.American.2010.720p.BrRip.x264.YIFY2016-10-17
2Arabicsubtitle Casino.Jack.2010.720p.BluRay.x264.YIFY2016-10-17
3Arabicsubtitle The.Last.Airbender.2010.720p.BrRip.x264.YIFY2016-10-17
2Arabicsubtitle The Sorcerer's Apprentice2016-10-17
2Arabicsubtitle Tucker.And.Dale.VS.Evil.2010.720p.BRrip.x264.YIFY2016-10-17
2Arabicsubtitle The Tempest 20102016-10-15